Time,TemperatureF,DewpointF,PressureIn,WindDirection,WindDirectionDegrees,WindSpeedMPH,WindSpeedGustMPH,Humidity,HourlyPrecipIn,Conditions,Clouds,dailyrainin,SolarRadiationWatts/m^2,SoftwareType,DateUTC
2013-02-09 00:00:00,33.7,28.5,30.34,NNE,24,3.0,4.0,81,0.00,,,0.08,0,Wunderground v.1.15,2013-02-09 05:00:00,
2013-02-09 00:05:00,33.7,28.2,30.34,NE,34,5.0,5.0,80,0.00,,,0.00,0,Wunderground v.1.15,2013-02-09 05:05:00,
2013-02-09 00:10:00,33.7,28.5,30.34,NNE,28,4.0,5.0,81,0.00,,,0.00,0,Wunderground v.1.15,2013-02-09 05:10:00,
2013-02-09 00:15:00,33.7,28.5,30.34,NE,36,6.0,9.0,81,0.00,,,0.00,0,Wunderground v.1.15,2013-02-09 05:15:00,
2013-02-09 00:20:00,33.7,28.5,30.34,NNE,26,4.0,4.0,81,0.00,,,0.00,0,Wunderground v.1.15,2013-02-09 05:20:00,
2013-02-09 00:25:00,33.6,28.4,30.35,NNE,13,5.0,7.0,81,0.00,,,0.00,0,Wunderground v.1.15,2013-02-09 05:25:00,
2013-02-09 00:30:00,33.6,28.4,30.35,NNE,17,4.0,4.0,81,0.00,,,0.00,0,Wunderground v.1.15,2013-02-09 05:30:00,
2013-02-09 00:35:00,33.6,28.4,30.35,North,360,1.0,6.0,81,0.00,,,0.00,0,Wunderground v.1.15,2013-02-09 05:35:00,
2013-02-09 00:40:00,33.6,28.4,30.35,NNE,33,3.0,5.0,81,0.00,,,0.00,0,Wunderground v.1.15,2013-02-09 05:40:00,
2013-02-09 00:45:00,33.5,28.3,30.35,NE,34,4.0,6.0,81,0.00,,,0.00,0,Wunderground v.1.15,2013-02-09 05:45:00,
2013-02-09 00:50:00,33.5,28.3,30.35,NNE,15,5.0,7.0,81,0.00,,,0.00,0,Wunderground v.1.15,2013-02-09 05:50:00,
2013-02-09 00:55:00,33.5,28.3,30.35,North,5,2.0,7.0,81,0.00,,,0.00,0,Wunderground v.1.15,2013-02-09 05:55:00,
2013-02-09 01:00:00,33.4,28.2,30.35,North,10,3.0,4.0,81,0.00,,,0.00,0,Wunderground v.1.15,2013-02-09 06:00:00,
2013-02-09 01:05:00,33.4,28.2,30.35,North,360,5.0,7.0,81,0.00,,,0.00,0,Wunderground v.1.15,2013-02-09 06:05:00,
2013-02-09 01:10:00,33.4,28.2,30.35,NE,37,4.0,6.0,81,0.00,,,0.00,0,Wunderground v.1.15,2013-02-09 06:10:00,
2013-02-09 01:15:00,33.3,28.4,30.34,North,11,3.0,6.0,82,0.00,,,0.00,0,Wunderground v.1.15,2013-02-09 06:15:00,
2013-02-09 01:20:00,33.3,28.4,30.35,NNE,31,7.0,7.0,82,0.00,,,0.00,0,Wunderground v.1.15,2013-02-09 06:20:00,
2013-02-09 01:25:00,33.2,28.3,30.35,North,11,4.0,8.0,82,0.00,,,0.00,0,Wunderground v.1.15,2013-02-09 06:25:00,
2013-02-09 01:30:00,33.2,28.3,30.35,NNW,342,3.0,6.0,82,0.00,,,0.00,0,Wunderground v.1.15,2013-02-09 06:30:00,
2013-02-09 01:35:00,33.1,28.2,30.35,NNE,13,6.0,7.0,82,0.00,,,0.00,0,Wunderground v.1.15,2013-02-09 06:35:00,
2013-02-09 01:40:00,33.0,28.1,30.35,NNW,336,4.0,5.0,82,0.00,,,0.00,0,Wunderground v.1.15,2013-02-09 06:40:00,
2013-02-09 01:45:00,32.9,28.0,30.35,North,360,5.0,6.0,82,0.00,,,0.00,0,Wunderground v.1.15,2013-02-09 06:45:00,
2013-02-09 01:50:00,32.9,28.0,30.35,North,5,5.0,7.0,82,0.00,,,0.00,0,Wunderground v.1.15,2013-02-09 06:50:00,
2013-02-09 01:55:00,32.8,27.6,30.35,North,5,5.0,8.0,81,0.00,,,0.00,0,Wunderground v.1.15,2013-02-09 06:55:00,
2013-02-09 02:00:00,32.8,27.6,30.35,NNE,25,8.0,8.0,81,0.00,,,0.00,0,Wunderground v.1.15,2013-02-09 07:00:00,
2013-02-09 02:05:00,32.7,27.5,30.35,NNE,18,6.0,8.0,81,0.00,,,0.00,0,Wunderground v.1.15,2013-02-09 07:05:00,
2013-02-09 02:10:00,32.6,27.4,30.35,NNE,30,4.0,5.0,81,0.00,,,0.00,0,Wunderground v.1.15,2013-02-09 07:10:00,
2013-02-09 02:14:00,32.6,27.4,30.34,North,5,3.0,7.0,81,0.00,,,0.00,0,Wunderground v.1.15,2013-02-09 07:14:00,
2013-02-09 02:19:00,32.5,27.3,30.35,NNE,27,6.0,7.0,81,0.00,,,0.00,0,Wunderground v.1.15,2013-02-09 07:19:00,
2013-02-09 02:24:00,32.5,27.0,30.35,NE,46,5.0,8.0,80,0.00,,,0.00,0,Wunderground v.1.15,2013-02-09 07:24:00,
2013-02-09 02:29:00,32.5,27.0,30.35,NNE,23,6.0,8.0,80,0.00,,,0.00,0,Wunderground v.1.15,2013-02-09 07:29:00,
2013-02-09 02:34:00,32.4,26.9,30.36,NE,38,4.0,6.0,80,0.00,,,0.00,0,Wunderground v.1.15,2013-02-09 07:34:00,
2013-02-09 02:39:00,32.4,27.2,30.35,NNE,14,4.0,6.0,81,0.00,,,0.00,0,Wunderground v.1.15,2013-02-09 07:39:00,
2013-02-09 02:44:00,32.4,26.9,30.35,NNE,21,4.0,6.0,80,0.00,,,0.00,0,Wunderground v.1.15,2013-02-09 07:44:00,
2013-02-09 02:49:00,32.3,26.8,30.35,NNE,28,3.0,6.0,80,0.00,,,0.00,0,Wunderground v.1.15,2013-02-09 07:49:00,
2013-02-09 02:54:00,32.2,26.7,30.36,NE,44,5.0,7.0,80,0.00,,,0.00,0,Wunderground v.1.15,2013-02-09 07:54:00,
2013-02-09 02:59:00,32.1,26.6,30.36,NE,40,4.0,7.0,80,0.00,,,0.00,0,Wunderground v.1.15,2013-02-09 07:59:00,
2013-02-09 03:04:00,32.1,26.9,30.37,North,9,4.0,4.0,81,0.00,,,0.00,0,Wunderground v.1.15,2013-02-09 08:04:00,
2013-02-09 03:09:00,32.1,26.9,30.37,North,360,6.0,6.0,81,0.00,,,0.00,0,Wunderground v.1.15,2013-02-09 08:09:00,
2013-02-09 03:14:00,32.0,26.8,30.37,North,360,3.0,7.0,81,0.00,,,0.00,0,Wunderground v.1.15,2013-02-09 08:14:00,
2013-02-09 03:19:00,32.0,27.1,30.37,NNE,19,3.0,7.0,82,0.00,,,0.00,0,Wunderground v.1.15,2013-02-09 08:19:00,
2013-02-09 03:24:00,31.9,27.0,30.37,NE,36,3.0,5.0,82,0.00,,,0.00,0,Wunderground v.1.15,2013-02-09 08:24:00,
2013-02-09 03:29:00,31.7,26.8,30.37,NNE,32,3.0,5.0,82,0.00,,,0.00,0,Wunderground v.1.15,2013-02-09 08:29:00,
2013-02-09 03:34:00,31.7,26.8,30.37,NNE,20,3.0,5.0,82,0.00,,,0.00,0,Wunderground v.1.15,2013-02-09 08:34:00,
2013-02-09 03:39:00,31.7,26.8,30.37,NE,34,4.0,5.0,82,0.00,,,0.00,0,Wunderground v.1.15,2013-02-09 08:39:00,
2013-02-09 03:44:00,31.6,26.7,30.37,NNE,28,3.0,5.0,82,0.00,,,0.00,0,Wunderground v.1.15,2013-02-09 08:44:00,
2013-02-09 03:49:00,31.6,26.7,30.37,North,5,4.0,6.0,82,0.00,,,0.00,0,Wunderground v.1.15,2013-02-09 08:49:00,
2013-02-09 03:54:00,31.5,26.6,30.36,NNE,28,4.0,5.0,82,0.00,,,0.00,0,Wunderground v.1.15,2013-02-09 08:54:00,
2013-02-09 03:59:00,31.5,26.3,30.37,North,10,1.0,5.0,81,0.00,,,0.00,0,Wunderground v.1.15,2013-02-09 08:59:00,
2013-02-09 04:04:00,31.4,26.2,30.37,NNE,26,5.0,7.0,81,0.00,,,0.00,0,Wunderground v.1.15,2013-02-09 09:04:00,
2013-02-09 04:09:00,31.4,26.2,30.37,NNE,26,5.0,7.0,81,0.00,,,0.00,0,Wunderground v.1.15,2013-02-09 09:09:00,
2013-02-09 04:14:00,31.4,26.5,30.37,NE,51,3.0,5.0,82,0.00,,,0.00,0,Wunderground v.1.15,2013-02-09 09:14:00,
2013-02-09 04:19:00,31.3,26.4,30.37,ENE,61,4.0,4.0,82,0.00,,,0.00,0,Wunderground v.1.15,2013-02-09 09:19:00,
2013-02-09 04:24:00,31.2,26.3,30.36,ENE,59,4.0,7.0,82,0.00,,,0.00,0,Wunderground v.1.15,2013-02-09 09:24:00,
2013-02-09 04:29:00,31.3,26.4,30.37,ENE,57,3.0,7.0,82,0.00,,,0.00,0,Wunderground v.1.15,2013-02-09 09:29:00,
2013-02-09 04:34:00,31.3,26.4,30.37,ENE,59,3.0,4.0,82,0.00,,,0.00,0,Wunderground v.1.15,2013-02-09 09:34:00,
2013-02-09 04:39:00,31.3,26.4,30.36,ENE,75,2.0,4.0,82,0.00,,,0.00,0,Wunderground v.1.15,2013-02-09 09:39:00,
2013-02-09 04:44:00,31.4,26.5,30.36,ENE,59,2.0,5.0,82,0.00,,,0.00,0,Wunderground v.1.15,2013-02-09 09:44:00,
2013-02-09 04:49:00,31.4,25.9,30.36,NE,52,3.0,5.0,80,0.00,,,0.00,0,Wunderground v.1.15,2013-02-09 09:49:00,
2013-02-09 04:54:00,31.4,25.9,30.37,East,94,3.0,5.0,80,0.00,,,0.00,0,Wunderground v.1.15,2013-02-09 09:54:00,
2013-02-09 04:59:00,31.4,25.6,30.36,ESE,117,4.0,7.0,79,0.00,,,0.00,0,Wunderground v.1.15,2013-02-09 09:59:00,
2013-02-09 05:04:00,31.2,25.4,30.37,East,97,1.0,6.0,79,0.00,,,0.00,0,Wunderground v.1.15,2013-02-09 10:04:00,
2013-02-09 05:09:00,31.1,25.3,30.37,East,94,2.0,3.0,79,0.00,,,0.00,0,Wunderground v.1.15,2013-02-09 10:09:00,
2013-02-09 05:14:00,31.1,25.0,30.37,East,93,3.0,3.0,78,0.00,,,0.00,0,Wunderground v.1.15,2013-02-09 10:14:00,
2013-02-09 05:19:00,31.0,24.9,30.37,East,101,1.0,2.0,78,0.00,,,0.00,0,Wunderground v.1.15,2013-02-09 10:19:00,
2013-02-09 05:24:00,30.9,24.8,30.38,East,98,0.0,2.0,78,0.00,,,0.00,0,Wunderground v.1.15,2013-02-09 10:24:00,
2013-02-09 05:29:00,31.0,24.9,30.39,East,98,1.0,1.0,78,0.00,,,0.00,0,Wunderground v.1.15,2013-02-09 10:29:00,
2013-02-09 05:34:00,31.0,24.9,30.38,East,98,1.0,2.0,78,0.00,,,0.00,0,Wunderground v.1.15,2013-02-09 10:34:00,
2013-02-09 05:39:00,31.0,24.9,30.38,East,98,1.0,1.0,78,0.00,,,0.00,0,Wunderground v.1.15,2013-02-09 10:39:00,
2013-02-09 05:44:00,30.9,24.8,30.39,East,98,0.0,2.0,78,0.00,,,0.00,0,Wunderground v.1.15,2013-02-09 10:44:00,
2013-02-09 05:49:00,30.9,24.8,30.38,ESE,107,2.0,2.0,78,0.00,,,0.00,0,Wunderground v.1.15,2013-02-09 10:49:00,
2013-02-09 05:54:00,30.7,24.7,30.38,ESE,114,3.0,6.0,78,0.00,,,0.00,0,Wunderground v.1.15,2013-02-09 10:54:00,
2013-02-09 05:59:00,30.4,24.7,30.39,ESE,107,2.0,3.0,79,0.00,,,0.00,0,Wunderground v.1.15,2013-02-09 10:59:00,
2013-02-09 06:04:00,30.3,24.3,30.38,ESE,118,3.0,5.0,78,0.00,,,0.00,0,Wunderground v.1.15,2013-02-09 11:04:00,
2013-02-09 06:09:00,29.9,24.2,30.38,ESE,117,2.0,3.0,79,0.00,,,0.00,0,Wunderground v.1.15,2013-02-09 11:09:00,
2013-02-09 06:14:00,29.9,24.2,30.38,SE,131,2.0,6.0,79,0.00,,,0.00,0,Wunderground v.1.15,2013-02-09 11:14:00,
2013-02-09 06:19:00,29.7,24.0,30.38,ESE,119,3.0,3.0,79,0.00,,,0.00,0,Wunderground v.1.15,2013-02-09 11:19:00,
2013-02-09 06:24:00,29.4,23.7,30.38,ESE,103,2.0,4.0,79,0.00,,,0.00,0,Wunderground v.1.15,2013-02-09 11:24:00,
2013-02-09 06:29:00,29.2,23.8,30.38,ESE,107,1.0,2.0,80,0.00,,,0.00,0,Wunderground v.1.15,2013-02-09 11:29:00,
2013-02-09 06:34:00,29.2,23.8,30.39,SE,128,2.0,4.0,80,0.00,,,0.00,0,Wunderground v.1.15,2013-02-09 11:34:00,
2013-02-09 06:40:00,29.3,23.6,30.39,SE,125,0.0,2.0,79,0.00,,,0.00,0,Wunderground v.1.15,2013-02-09 11:40:00,
2013-02-09 06:45:00,29.2,23.5,30.40,SE,125,0.0,2.0,79,0.00,,,0.00,0,Wunderground v.1.15,2013-02-09 11:45:00,
2013-02-09 06:50:00,29.3,23.6,30.40,SE,125,0.0,1.0,79,0.00,,,0.00,0,Wunderground v.1.15,2013-02-09 11:50:00,
2013-02-09 06:55:00,29.2,23.5,30.40,SE,125,0.0,1.0,79,0.00,,,0.00,0,Wunderground v.1.15,2013-02-09 11:55:00,
2013-02-09 07:00:00,29.1,23.4,30.41,SE,125,0.0,0.0,79,0.00,,,0.00,0,Wunderground v.1.15,2013-02-09 12:00:00,
2013-02-09 07:05:00,28.8,23.1,30.40,SE,125,1.0,2.0,79,0.00,,,0.00,0,Wunderground v.1.15,2013-02-09 12:05:00,
2013-02-09 07:10:00,28.2,23.1,30.40,ESE,119,0.0,1.0,81,0.00,,,0.00,0,Wunderground v.1.15,2013-02-09 12:10:00,
2013-02-09 07:15:00,28.0,23.2,30.40,ESE,119,0.0,3.0,82,0.00,,,0.00,0,Wunderground v.1.15,2013-02-09 12:15:00,
2013-02-09 07:20:00,28.2,23.1,30.41,ESE,119,0.0,1.0,81,0.00,,,0.00,0,Wunderground v.1.15,2013-02-09 12:20:00,
2013-02-09 07:25:00,28.5,23.1,30.41,ESE,119,0.0,2.0,80,0.00,,,0.00,0,Wunderground v.1.15,2013-02-09 12:25:00,
2013-02-09 07:30:00,28.5,23.1,30.41,ESE,119,0.0,0.0,80,0.00,,,0.00,0,Wunderground v.1.15,2013-02-09 12:30:00,
2013-02-09 07:35:00,28.5,22.8,30.41,ESE,119,0.0,0.0,79,0.00,,,0.00,5,Wunderground v.1.15,2013-02-09 12:35:00,
2013-02-09 07:40:00,28.4,22.7,30.42,ESE,119,1.0,2.0,79,0.00,,,0.00,7,Wunderground v.1.15,2013-02-09 12:40:00,
2013-02-09 07:45:00,28.1,22.4,30.41,ESE,112,1.0,2.0,79,0.00,,,0.00,11,Wunderground v.1.15,2013-02-09 12:45:00,
2013-02-09 07:50:00,27.6,22.8,30.41,ESE,112,1.0,1.0,82,0.00,,,0.00,18,Wunderground v.1.15,2013-02-09 12:50:00,
2013-02-09 07:55:00,27.4,22.6,30.41,ESE,112,2.0,2.0,82,0.00,,,0.00,21,Wunderground v.1.15,2013-02-09 12:55:00,
2013-02-09 08:00:00,27.5,22.7,30.41,ESE,112,1.0,2.0,82,0.00,,,0.00,25,Wunderground v.1.15,2013-02-09 13:00:00,
2013-02-09 08:05:00,27.8,22.7,30.41,ESE,107,2.0,4.0,81,0.00,,,0.00,42,Wunderground v.1.15,2013-02-09 13:05:00,
2013-02-09 08:10:00,28.1,23.0,30.41,ESE,105,4.0,5.0,81,0.00,,,0.00,65,Wunderground v.1.15,2013-02-09 13:10:00,
2013-02-09 08:15:00,28.4,23.0,30.41,ENE,76,2.0,5.0,80,0.00,,,0.00,70,Wunderground v.1.15,2013-02-09 13:15:00,
2013-02-09 08:20:00,28.7,23.3,30.42,ESE,105,2.0,2.0,80,0.00,,,0.00,86,Wunderground v.1.15,2013-02-09 13:20:00,
2013-02-09 08:25:00,28.9,22.9,30.42,ESE,105,1.0,5.0,78,0.00,,,0.00,104,Wunderground v.1.15,2013-02-09 13:25:00,
2013-02-09 08:30:00,29.2,23.2,30.42,ESE,110,4.0,5.0,78,0.00,,,0.00,118,Wunderground v.1.15,2013-02-09 13:30:00,
2013-02-09 08:35:00,29.7,23.4,30.43,SE,129,5.0,7.0,77,0.00,,,0.00,137,Wunderground v.1.15,2013-02-09 13:35:00,
2013-02-09 08:40:00,29.8,23.5,30.43,ESE,121,4.0,4.0,77,0.00,,,0.00,156,Wunderground v.1.15,2013-02-09 13:40:00,
2013-02-09 08:45:00,30.0,23.4,30.43,ESE,107,4.0,7.0,76,0.00,,,0.00,178,Wunderground v.1.15,2013-02-09 13:45:00,
2013-02-09 08:50:00,30.2,23.2,30.43,East,96,7.0,9.0,75,0.00,,,0.00,197,Wunderground v.1.15,2013-02-09 13:50:00,
2013-02-09 08:55:00,30.4,23.7,30.43,East,80,6.0,10.0,76,0.00,,,0.00,216,Wunderground v.1.15,2013-02-09 13:55:00,
2013-02-09 09:00:00,30.3,23.6,30.43,ENE,74,8.0,11.0,76,0.00,,,0.00,237,Wunderground v.1.15,2013-02-09 14:00:00,
2013-02-09 09:05:00,30.2,23.5,30.43,ENE,68,7.0,11.0,76,0.00,,,0.00,255,Wunderground v.1.15,2013-02-09 14:05:00,
2013-02-09 09:10:00,30.1,23.4,30.43,ESE,117,9.0,10.0,76,0.00,,,0.00,271,Wunderground v.1.15,2013-02-09 14:10:00,
2013-02-09 09:15:00,30.4,23.7,30.43,ENE,67,3.0,10.0,76,0.00,,,0.00,287,Wunderground v.1.15,2013-02-09 14:15:00,
2013-02-09 09:20:00,30.6,23.6,30.43,ENE,77,5.0,8.0,75,0.00,,,0.00,304,Wunderground v.1.15,2013-02-09 14:20:00,
2013-02-09 09:25:00,30.4,23.4,30.43,ESE,105,8.0,11.0,75,0.00,,,0.00,322,Wunderground v.1.15,2013-02-09 14:25:00,
2013-02-09 09:30:00,30.7,24.0,30.43,ESE,123,11.0,13.0,76,0.00,,,0.00,338,Wunderground v.1.15,2013-02-09 14:30:00,
2013-02-09 09:35:00,30.6,23.9,30.42,ESE,123,13.0,13.0,76,0.00,,,0.00,353,Wunderground v.1.15,2013-02-09 14:35:00,
2013-02-09 09:40:00,30.4,23.4,30.42,SE,144,7.0,12.0,75,0.00,,,0.00,369,Wunderground v.1.15,2013-02-09 14:40:00,
2013-02-09 09:45:00,31.1,24.4,30.42,SE,146,9.0,12.0,76,0.00,,,0.00,381,Wunderground v.1.15,2013-02-09 14:45:00,
2013-02-09 09:50:00,31.2,24.2,30.42,ENE,78,10.0,14.0,75,0.00,,,0.00,397,Wunderground v.1.15,2013-02-09 14:50:00,
2013-02-09 09:55:00,31.3,24.0,30.42,East,80,10.0,14.0,74,0.00,,,0.00,411,Wunderground v.1.15,2013-02-09 14:55:00,
2013-02-09 10:00:00,31.5,23.8,30.42,ESE,107,13.0,13.0,73,0.00,,,0.00,424,Wunderground v.1.15,2013-02-09 15:00:00,
2013-02-09 10:05:00,31.3,24.0,30.42,ESE,120,11.0,13.0,74,0.00,,,0.00,441,Wunderground v.1.15,2013-02-09 15:05:00,
2013-02-09 10:10:00,31.7,24.0,30.41,SE,125,7.0,9.0,73,0.00,,,0.00,455,Wunderground v.1.15,2013-02-09 15:10:00,
2013-02-09 10:15:00,31.9,24.2,30.41,SE,142,11.0,14.0,73,0.00,,,0.00,468,Wunderground v.1.15,2013-02-09 15:15:00,
2013-02-09 10:20:00,32.2,24.5,30.41,ESE,113,8.0,10.0,73,0.00,,,0.00,478,Wunderground v.1.15,2013-02-09 15:20:00,
2013-02-09 10:25:00,32.3,24.6,30.41,SSE,150,9.0,12.0,73,0.00,,,0.00,494,Wunderground v.1.15,2013-02-09 15:25:00,
2013-02-09 10:30:00,32.7,24.7,30.41,SE,143,7.0,9.0,72,0.00,,,0.00,506,Wunderground v.1.15,2013-02-09 15:30:00,
2013-02-09 10:35:00,33.2,25.1,30.41,ESE,123,10.0,11.0,72,0.00,,,0.00,519,Wunderground v.1.15,2013-02-09 15:35:00,
2013-02-09 10:40:00,33.1,25.1,30.41,ENE,75,10.0,10.0,72,0.00,,,0.00,533,Wunderground v.1.15,2013-02-09 15:40:00,
2013-02-09 10:45:00,33.2,24.8,30.41,East,82,5.0,11.0,71,0.00,,,0.00,506,Wunderground v.1.15,2013-02-09 15:45:00,
2013-02-09 10:50:00,33.0,24.6,30.41,East,101,6.0,11.0,71,0.00,,,0.00,543,Wunderground v.1.15,2013-02-09 15:50:00,
2013-02-09 10:55:00,33.2,24.8,30.41,SE,136,6.0,11.0,71,0.00,,,0.00,555,Wunderground v.1.15,2013-02-09 15:55:00,
2013-02-09 11:00:00,33.7,25.0,30.42,ENE,78,5.0,7.0,70,0.00,,,0.00,570,Wunderground v.1.15,2013-02-09 16:00:00,
2013-02-09 11:06:00,34.1,25.0,30.41,East,95,8.0,10.0,69,0.00,,,0.00,570,Wunderground v.1.15,2013-02-09 16:06:00,
2013-02-09 11:10:00,34.0,25.2,30.42,ESE,103,5.0,8.0,70,0.00,,,0.00,587,Wunderground v.1.15,2013-02-09 16:10:00,
2013-02-09 11:16:00,34.7,25.2,30.42,SE,145,8.0,9.0,68,0.00,,,0.00,592,Wunderground v.1.15,2013-02-09 16:16:00,
2013-02-09 11:21:00,34.4,25.6,30.42,SE,142,6.0,6.0,70,0.00,,,0.00,578,Wunderground v.1.15,2013-02-09 16:21:00,
2013-02-09 11:26:00,35.1,25.6,30.42,WNW,288,0.0,7.0,68,0.00,,,0.00,624,Wunderground v.1.15,2013-02-09 16:26:00,
2013-02-09 11:31:00,35.1,25.6,30.42,SE,128,10.0,12.0,68,0.00,,,0.00,631,Wunderground v.1.15,2013-02-09 16:31:00,
2013-02-09 11:36:00,34.6,24.8,30.42,SE,129,3.0,12.0,67,0.00,,,0.00,621,Wunderground v.1.15,2013-02-09 16:36:00,
2013-02-09 11:41:00,35.1,25.2,30.41,SE,138,5.0,10.0,67,0.00,,,0.00,621,Wunderground v.1.15,2013-02-09 16:41:00,
2013-02-09 11:46:00,35.6,25.7,30.41,SE,137,5.0,10.0,67,0.00,,,0.00,643,Wunderground v.1.15,2013-02-09 16:46:00,
2013-02-09 11:51:00,35.7,25.4,30.41,ENE,73,1.0,5.0,66,0.00,,,0.00,635,Wunderground v.1.15,2013-02-09 16:51:00,
2013-02-09 11:56:00,36.0,25.4,30.41,East,87,8.0,8.0,65,0.00,,,0.00,642,Wunderground v.1.15,2013-02-09 16:56:00,
2013-02-09 12:01:00,35.9,26.0,30.41,ESE,111,11.0,11.0,67,0.00,,,0.00,654,Wunderground v.1.15,2013-02-09 17:01:00,
2013-02-09 12:06:00,36.2,25.9,30.41,SSE,152,7.0,11.0,66,0.00,,,0.00,670,Wunderground v.1.15,2013-02-09 17:06:00,
2013-02-09 12:11:00,36.7,26.0,30.41,SSE,160,4.0,5.0,65,0.00,,,0.00,673,Wunderground v.1.15,2013-02-09 17:11:00,
2013-02-09 12:16:00,37.5,25.7,30.41,SW,225,1.0,9.0,62,0.00,,,0.00,682,Wunderground v.1.15,2013-02-09 17:16:00,
2013-02-09 12:21:00,37.9,24.8,30.40,South,171,5.0,12.0,59,0.00,,,0.00,684,Wunderground v.1.15,2013-02-09 17:21:00,
2013-02-09 12:26:00,38.5,25.4,30.40,South,174,3.0,12.0,59,0.00,,,0.00,686,Wunderground v.1.15,2013-02-09 17:26:00,
2013-02-09 12:31:00,38.7,26.0,30.40,WNW,294,1.0,4.0,60,0.00,,,0.00,693,Wunderground v.1.15,2013-02-09 17:31:00,
2013-02-09 12:36:00,39.6,26.4,30.40,SSW,211,3.0,8.0,59,0.00,,,0.00,701,Wunderground v.1.15,2013-02-09 17:36:00,
2013-02-09 12:41:00,39.8,26.2,30.39,SW,226,6.0,7.0,58,0.00,,,0.00,664,Wunderground v.1.15,2013-02-09 17:41:00,
2013-02-09 12:46:00,38.4,25.7,30.39,SE,146,7.0,11.0,60,0.00,,,0.00,621,Wunderground v.1.15,2013-02-09 17:46:00,
2013-02-09 12:51:00,38.4,25.7,30.39,SSW,211,5.0,7.0,60,0.00,,,0.00,693,Wunderground v.1.15,2013-02-09 17:51:00,
2013-02-09 12:56:00,39.9,26.7,30.38,SW,222,0.0,7.0,59,0.00,,,0.00,696,Wunderground v.1.15,2013-02-09 17:56:00,
2013-02-09 13:01:00,38.8,25.3,30.38,ESE,119,0.0,6.0,58,0.00,,,0.00,682,Wunderground v.1.15,2013-02-09 18:01:00,
2013-02-09 13:06:00,39.2,25.2,30.38,ESE,103,4.0,9.0,57,0.00,,,0.00,668,Wunderground v.1.15,2013-02-09 18:06:00,
2013-02-09 13:11:00,39.0,25.5,30.38,South,179,4.0,6.0,58,0.00,,,0.00,691,Wunderground v.1.15,2013-02-09 18:11:00,
2013-02-09 13:16:00,39.7,26.1,30.38,ESE,118,0.0,6.0,58,0.00,,,0.00,687,Wunderground v.1.15,2013-02-09 18:16:00,
2013-02-09 13:21:00,40.0,26.0,30.37,SSW,209,0.0,7.0,57,0.00,,,0.00,687,Wunderground v.1.15,2013-02-09 18:21:00,
2013-02-09 13:26:00,39.7,25.7,30.38,East,79,1.0,7.0,57,0.00,,,0.00,682,Wunderground v.1.15,2013-02-09 18:26:00,
2013-02-09 13:31:00,39.9,25.9,30.38,ESE,111,9.0,9.0,57,0.00,,,0.00,661,Wunderground v.1.15,2013-02-09 18:31:00,
2013-02-09 13:36:00,39.6,25.2,30.37,East,94,6.0,9.0,56,0.00,,,0.00,677,Wunderground v.1.15,2013-02-09 18:36:00,
2013-02-09 13:41:00,40.2,26.6,30.37,SE,130,3.0,5.0,58,0.00,,,0.00,675,Wunderground v.1.15,2013-02-09 18:41:00,
2013-02-09 13:46:00,40.3,25.4,30.36,East,90,6.0,10.0,55,0.00,,,0.00,668,Wunderground v.1.15,2013-02-09 18:46:00,
2013-02-09 13:51:00,40.2,25.3,30.36,East,94,5.0,9.0,55,0.00,,,0.00,647,Wunderground v.1.15,2013-02-09 18:51:00,
2013-02-09 13:56:00,40.5,24.2,30.35,East,101,1.0,9.0,52,0.00,,,0.00,599,Wunderground v.1.15,2013-02-09 18:56:00,
2013-02-09 14:01:00,41.0,24.2,30.35,ENE,66,7.0,9.0,51,0.00,,,0.00,647,Wunderground v.1.15,2013-02-09 19:01:00,
2013-02-09 14:06:00,40.7,23.5,30.35,East,95,8.0,9.0,50,0.00,,,0.00,635,Wunderground v.1.15,2013-02-09 19:06:00,
2013-02-09 14:11:00,40.8,23.1,30.34,ESE,102,5.0,11.0,49,0.00,,,0.00,643,Wunderground v.1.15,2013-02-09 19:11:00,
2013-02-09 14:16:00,40.7,24.0,30.34,ENE,62,2.0,11.0,51,0.00,,,0.00,635,Wunderground v.1.15,2013-02-09 19:16:00,
2013-02-09 14:21:00,41.8,25.4,30.34,South,182,1.0,5.0,52,0.00,,,0.00,628,Wunderground v.1.15,2013-02-09 19:21:00,
2013-02-09 14:26:00,41.3,25.0,30.34,East,80,2.0,6.0,52,0.00,,,0.00,568,Wunderground v.1.15,2013-02-09 19:26:00,
2013-02-09 14:31:00,41.4,26.0,30.34,SSW,206,2.0,9.0,54,0.00,,,0.00,608,Wunderground v.1.15,2013-02-09 19:31:00,
2013-02-09 14:36:00,42.5,27.5,30.33,ENE,65,3.0,9.0,55,0.00,,,0.00,596,Wunderground v.1.15,2013-02-09 19:36:00,
2013-02-09 14:41:00,42.2,26.3,30.33,East,81,5.0,9.0,53,0.00,,,0.00,585,Wunderground v.1.15,2013-02-09 19:41:00,
2013-02-09 14:46:00,42.1,25.7,30.33,ENE,77,9.0,11.0,52,0.00,,,0.00,415,Wunderground v.1.15,2013-02-09 19:46:00,
2013-02-09 14:51:00,42.2,25.8,30.33,SE,135,8.0,10.0,52,0.00,,,0.00,364,Wunderground v.1.15,2013-02-09 19:51:00,
2013-02-09 14:56:00,41.9,25.1,30.33,ESE,121,4.0,12.0,51,0.00,,,0.00,499,Wunderground v.1.15,2013-02-09 19:56:00,
2013-02-09 15:01:00,42.2,24.9,30.33,SE,128,7.0,8.0,50,0.00,,,0.00,490,Wunderground v.1.15,2013-02-09 20:01:00,
2013-02-09 15:06:00,42.8,24.9,30.33,SE,134,5.0,10.0,49,0.00,,,0.00,462,Wunderground v.1.15,2013-02-09 20:06:00,
2013-02-09 15:11:00,42.8,26.8,30.32,SSW,196,3.0,7.0,53,0.00,,,0.00,366,Wunderground v.1.15,2013-02-09 20:11:00,
2013-02-09 15:16:00,43.0,24.6,30.33,ESE,111,9.0,11.0,48,0.00,,,0.00,390,Wunderground v.1.15,2013-02-09 20:16:00,
2013-02-09 15:21:00,42.7,23.8,30.32,SE,143,9.0,13.0,47,0.00,,,0.00,410,Wunderground v.1.15,2013-02-09 20:21:00,
2013-02-09 15:26:00,42.7,23.8,30.32,ESE,116,2.0,13.0,47,0.00,,,0.00,373,Wunderground v.1.15,2013-02-09 20:26:00,
2013-02-09 15:31:00,42.7,23.3,30.32,SE,145,4.0,12.0,46,0.00,,,0.00,327,Wunderground v.1.15,2013-02-09 20:31:00,
2013-02-09 15:36:00,42.8,23.9,30.32,ESE,104,4.0,12.0,47,0.00,,,0.00,287,Wunderground v.1.15,2013-02-09 20:36:00,
2013-02-09 15:41:00,42.9,24.0,30.32,SSE,154,3.0,7.0,47,0.00,,,0.00,327,Wunderground v.1.15,2013-02-09 20:41:00,
2013-02-09 15:46:00,43.1,24.2,30.32,East,86,7.0,12.0,47,0.00,,,0.00,343,Wunderground v.1.15,2013-02-09 20:46:00,
2013-02-09 15:52:00,43.1,24.2,30.32,SE,138,5.0,8.0,47,0.00,,,0.00,367,Wunderground v.1.15,2013-02-09 20:52:00,
2013-02-09 15:57:00,43.6,24.7,30.32,ESE,123,5.0,8.0,47,0.00,,,0.00,346,Wunderground v.1.15,2013-02-09 20:57:00,
2013-02-09 16:02:00,43.3,24.4,30.32,SSE,167,6.0,10.0,47,0.00,,,0.00,325,Wunderground v.1.15,2013-02-09 21:02:00,
2013-02-09 16:07:00,43.3,23.9,30.32,SE,135,6.0,10.0,46,0.00,,,0.00,374,Wunderground v.1.15,2013-02-09 21:07:00,
2013-02-09 16:12:00,43.4,23.4,30.32,SE,135,3.0,7.0,45,0.00,,,0.00,353,Wunderground v.1.15,2013-02-09 21:12:00,
2013-02-09 16:17:00,43.7,24.2,30.32,SE,126,4.0,10.0,46,0.00,,,0.00,316,Wunderground v.1.15,2013-02-09 21:17:00,
2013-02-09 16:22:00,43.4,24.0,30.32,SSE,156,5.0,9.0,46,0.00,,,0.00,304,Wunderground v.1.15,2013-02-09 21:22:00,
2013-02-09 16:27:00,43.6,24.2,30.31,East,92,6.0,9.0,46,0.00,,,0.00,276,Wunderground v.1.15,2013-02-09 21:27:00,
2013-02-09 16:32:00,43.5,23.5,30.31,SE,138,6.0,10.0,45,0.00,,,0.00,274,Wunderground v.1.15,2013-02-09 21:32:00,
2013-02-09 16:37:00,43.6,24.2,30.31,SE,137,5.0,10.0,46,0.00,,,0.00,236,Wunderground v.1.15,2013-02-09 21:37:00,
2013-02-09 16:42:00,43.5,24.1,30.31,SE,138,7.0,9.0,46,0.00,,,0.00,174,Wunderground v.1.15,2013-02-09 21:42:00,
2013-02-09 16:47:00,43.5,24.1,30.31,SE,134,8.0,11.0,46,0.00,,,0.00,199,Wunderground v.1.15,2013-02-09 21:47:00,
2013-02-09 16:52:00,43.5,24.1,30.31,SE,126,4.0,11.0,46,0.00,,,0.00,221,Wunderground v.1.15,2013-02-09 21:52:00,
2013-02-09 16:57:00,43.6,23.6,30.31,East,93,5.0,11.0,45,0.00,,,0.00,216,Wunderground v.1.15,2013-02-09 21:57:00,
2013-02-09 17:02:00,43.7,24.2,30.30,SSE,148,6.0,8.0,46,0.00,,,0.00,192,Wunderground v.1.15,2013-02-09 22:02:00,
2013-02-09 17:07:00,43.6,24.2,30.31,ESE,119,5.0,10.0,46,0.00,,,0.00,125,Wunderground v.1.15,2013-02-09 22:07:00,
2013-02-09 17:12:00,43.6,24.2,30.30,ESE,111,8.0,8.0,46,0.00,,,0.00,105,Wunderground v.1.15,2013-02-09 22:12:00,
2013-02-09 17:17:00,43.4,24.0,30.30,SE,132,4.0,9.0,46,0.00,,,0.00,100,Wunderground v.1.15,2013-02-09 22:17:00,
2013-02-09 17:22:00,43.3,24.9,30.30,SE,146,4.0,8.0,48,0.00,,,0.00,93,Wunderground v.1.15,2013-02-09 22:22:00,
2013-02-09 17:27:00,43.4,24.5,30.30,SE,146,5.0,8.0,47,0.00,,,0.00,70,Wunderground v.1.15,2013-02-09 22:27:00,
2013-02-09 17:32:00,43.0,24.1,30.30,SE,138,6.0,7.0,47,0.00,,,0.00,49,Wunderground v.1.15,2013-02-09 22:32:00,
2013-02-09 17:37:00,42.8,23.9,30.30,SE,138,8.0,8.0,47,0.00,,,0.00,39,Wunderground v.1.15,2013-02-09 22:37:00,
2013-02-09 17:42:00,42.7,24.4,30.30,ESE,113,4.0,7.0,48,0.00,,,0.00,30,Wunderground v.1.15,2013-02-09 22:42:00,
2013-02-09 17:47:00,42.4,24.1,30.30,ESE,114,3.0,7.0,48,0.00,,,0.00,25,Wunderground v.1.15,2013-02-09 22:47:00,
2013-02-09 17:52:00,42.2,23.9,30.30,ESE,110,2.0,4.0,48,0.00,,,0.00,21,Wunderground v.1.15,2013-02-09 22:52:00,
2013-02-09 17:57:00,42.0,23.7,30.30,ESE,119,2.0,6.0,48,0.00,,,0.00,14,Wunderground v.1.15,2013-02-09 22:57:00,
2013-02-09 18:02:00,41.8,24.0,30.30,ESE,118,1.0,4.0,49,0.00,,,0.00,9,Wunderground v.1.15,2013-02-09 23:02:00,
2013-02-09 18:07:00,41.7,23.9,30.30,ESE,119,1.0,4.0,49,0.00,,,0.00,5,Wunderground v.1.15,2013-02-09 23:07:00,
2013-02-09 18:12:00,41.5,23.7,30.30,ESE,119,2.0,3.0,49,0.00,,,0.00,0,Wunderground v.1.15,2013-02-09 23:12:00,
2013-02-09 18:17:00,41.3,24.0,30.30,ESE,114,2.0,3.0,50,0.00,,,0.00,0,Wunderground v.1.15,2013-02-09 23:17:00,
2013-02-09 18:22:00,41.0,24.2,30.29,ESE,118,2.0,3.0,51,0.00,,,0.00,0,Wunderground v.1.15,2013-02-09 23:22:00,
2013-02-09 18:27:00,40.7,24.0,30.29,ESE,117,3.0,4.0,51,0.00,,,0.00,0,Wunderground v.1.15,2013-02-09 23:27:00,
2013-02-09 18:32:00,40.5,24.2,30.29,ESE,116,1.0,2.0,52,0.00,,,0.00,0,Wunderground v.1.15,2013-02-09 23:32:00,
2013-02-09 18:37:00,40.3,24.1,30.29,ESE,117,1.0,3.0,52,0.00,,,0.00,0,Wunderground v.1.15,2013-02-09 23:37:00,
2013-02-09 18:42:00,40.3,23.6,30.29,ESE,120,2.0,4.0,51,0.00,,,0.00,0,Wunderground v.1.15,2013-02-09 23:42:00,
2013-02-09 18:47:00,40.1,23.9,30.28,ESE,113,2.0,4.0,52,0.00,,,0.00,0,Wunderground v.1.15,2013-02-09 23:47:00,
2013-02-09 18:52:00,39.8,23.6,30.28,ESE,117,1.0,4.0,52,0.00,,,0.00,0,Wunderground v.1.15,2013-02-09 23:52:00,
2013-02-09 18:57:00,39.5,23.8,30.28,ESE,120,2.0,4.0,53,0.00,,,0.00,0,Wunderground v.1.15,2013-02-09 23:57:00,
2013-02-09 19:02:00,39.3,23.6,30.28,ESE,119,1.0,2.0,53,0.00,,,0.00,0,Wunderground v.1.15,2013-02-10 00:02:00,
2013-02-09 19:07:00,39.2,23.5,30.29,ESE,119,1.0,2.0,53,0.00,,,0.00,0,Wunderground v.1.15,2013-02-10 00:07:00,
2013-02-09 19:12:00,39.1,23.4,30.28,ESE,107,0.0,2.0,53,0.00,,,0.00,0,Wunderground v.1.15,2013-02-10 00:12:00,
2013-02-09 19:17:00,38.9,23.7,30.28,ESE,107,2.0,3.0,54,0.00,,,0.00,0,Wunderground v.1.15,2013-02-10 00:17:00,
2013-02-09 19:22:00,38.7,23.0,30.28,ESE,107,2.0,2.0,53,0.00,,,0.00,0,Wunderground v.1.15,2013-02-10 00:22:00,
2013-02-09 19:27:00,38.4,23.2,30.28,ESE,107,1.0,3.0,54,0.00,,,0.00,0,Wunderground v.1.15,2013-02-10 00:27:00,
2013-02-09 19:32:00,38.1,23.3,30.27,ESE,107,3.0,3.0,55,0.00,,,0.00,0,Wunderground v.1.15,2013-02-10 00:32:00,
2013-02-09 19:37:00,37.9,23.2,30.27,ESE,108,2.0,3.0,55,0.00,,,0.00,0,Wunderground v.1.15,2013-02-10 00:37:00,
2013-02-09 19:42:00,37.7,23.4,30.27,ESE,119,3.0,3.0,56,0.00,,,0.00,0,Wunderground v.1.15,2013-02-10 00:42:00,
2013-02-09 19:48:00,37.6,23.3,30.27,ESE,115,3.0,4.0,56,0.00,,,0.00,0,Wunderground v.1.15,2013-02-10 00:48:00,
2013-02-09 19:53:00,37.6,23.3,30.27,ESE,116,3.0,4.0,56,0.00,,,0.00,0,Wunderground v.1.15,2013-02-10 00:53:00,
2013-02-09 19:58:00,37.6,23.3,30.27,ESE,110,1.0,4.0,56,0.00,,,0.00,0,Wunderground v.1.15,2013-02-10 00:58:00,
2013-02-09 20:03:00,37.4,23.5,30.27,ESE,104,1.0,3.0,57,0.00,,,0.00,0,Wunderground v.1.15,2013-02-10 01:03:00,
2013-02-09 20:08:00,37.4,23.5,30.27,ESE,109,2.0,3.0,57,0.00,,,0.00,0,Wunderground v.1.15,2013-02-10 01:08:00,
2013-02-09 20:13:00,37.3,23.4,30.26,ESE,106,2.0,3.0,57,0.00,,,0.00,0,Wunderground v.1.15,2013-02-10 01:13:00,
2013-02-09 20:18:00,37.3,23.9,30.26,ESE,106,1.0,3.0,58,0.00,,,0.00,0,Wunderground v.1.15,2013-02-10 01:18:00,
2013-02-09 20:23:00,37.1,23.7,30.26,ESE,111,2.0,3.0,58,0.00,,,0.00,0,Wunderground v.1.15,2013-02-10 01:23:00,
2013-02-09 20:28:00,36.9,23.9,30.26,ESE,112,2.0,3.0,59,0.00,,,0.00,0,Wunderground v.1.15,2013-02-10 01:28:00,
2013-02-09 20:33:00,36.9,23.9,30.26,ESE,111,1.0,2.0,59,0.00,,,0.00,0,Wunderground v.1.15,2013-02-10 01:33:00,
2013-02-09 20:38:00,36.9,23.9,30.26,ESE,111,1.0,3.0,59,0.00,,,0.00,0,Wunderground v.1.15,2013-02-10 01:38:00,
2013-02-09 20:43:00,36.7,24.1,30.26,ESE,110,1.0,3.0,60,0.00,,,0.00,0,Wunderground v.1.15,2013-02-10 01:43:00,
2013-02-09 20:48:00,36.3,24.1,30.25,ESE,110,1.0,3.0,61,0.00,,,0.00,0,Wunderground v.1.15,2013-02-10 01:48:00,
2013-02-09 20:53:00,36.2,24.0,30.25,ESE,107,3.0,3.0,61,0.00,,,0.00,0,Wunderground v.1.15,2013-02-10 01:53:00,
2013-02-09 20:58:00,36.1,23.9,30.25,ESE,107,2.0,3.0,61,0.00,,,0.00,0,Wunderground v.1.15,2013-02-10 01:58:00,
2013-02-09 21:03:00,36.0,24.2,30.25,ESE,107,2.0,3.0,62,0.00,,,0.00,0,Wunderground v.1.15,2013-02-10 02:03:00,
2013-02-09 21:08:00,35.9,24.1,30.25,ESE,106,1.0,3.0,62,0.00,,,0.00,0,Wunderground v.1.15,2013-02-10 02:08:00,
2013-02-09 21:13:00,35.8,24.4,30.25,ESE,111,1.0,3.0,63,0.00,,,0.00,0,Wunderground v.1.15,2013-02-10 02:13:00,
2013-02-09 21:18:00,35.8,24.4,30.25,ESE,113,3.0,3.0,63,0.00,,,0.00,0,Wunderground v.1.15,2013-02-10 02:18:00,
2013-02-09 21:23:00,35.7,24.3,30.25,ESE,103,2.0,3.0,63,0.00,,,0.00,0,Wunderground v.1.15,2013-02-10 02:23:00,
2013-02-09 21:28:00,35.6,24.2,30.25,ESE,103,1.0,3.0,63,0.00,,,0.00,0,Wunderground v.1.15,2013-02-10 02:28:00,
2013-02-09 21:33:00,35.5,24.1,30.25,ESE,103,0.0,2.0,63,0.00,,,0.00,0,Wunderground v.1.15,2013-02-10 02:33:00,
2013-02-09 21:38:00,35.4,24.0,30.25,ESE,103,1.0,2.0,63,0.00,,,0.00,0,Wunderground v.1.15,2013-02-10 02:38:00,
2013-02-09 21:43:00,35.3,24.3,30.25,ESE,103,1.0,2.0,64,0.00,,,0.00,0,Wunderground v.1.15,2013-02-10 02:43:00,
2013-02-09 21:48:00,35.2,24.2,30.25,East,98,1.0,2.0,64,0.00,,,0.00,0,Wunderground v.1.15,2013-02-10 02:48:00,
2013-02-09 21:53:00,35.3,24.0,30.25,East,83,2.0,2.0,63,0.00,,,0.00,0,Wunderground v.1.15,2013-02-10 02:53:00,
2013-02-09 21:58:00,35.1,24.1,30.24,East,83,2.0,2.0,64,0.00,,,0.00,0,Wunderground v.1.15,2013-02-10 02:58:00,
2013-02-09 22:03:00,35.0,24.0,30.24,East,83,1.0,2.0,64,0.00,,,0.00,0,Wunderground v.1.15,2013-02-10 03:03:00,
2013-02-09 22:08:00,34.9,24.3,30.24,East,83,1.0,2.0,65,0.00,,,0.00,0,Wunderground v.1.15,2013-02-10 03:08:00,
2013-02-09 22:13:00,35.0,24.0,30.24,East,83,0.0,1.0,64,0.00,,,0.00,0,Wunderground v.1.15,2013-02-10 03:13:00,
2013-02-09 22:18:00,35.1,23.8,30.25,East,83,0.0,1.0,63,0.00,,,0.00,0,Wunderground v.1.15,2013-02-10 03:18:00,
2013-02-09 22:23:00,35.2,23.9,30.24,East,83,1.0,1.0,63,0.00,,,0.00,0,Wunderground v.1.15,2013-02-10 03:23:00,
2013-02-09 22:28:00,35.1,23.8,30.24,East,83,0.0,2.0,63,0.00,,,0.00,0,Wunderground v.1.15,2013-02-10 03:28:00,
2013-02-09 22:33:00,35.0,23.7,30.24,East,83,0.0,0.0,63,0.00,,,0.00,0,Wunderground v.1.15,2013-02-10 03:33:00,
2013-02-09 22:38:00,34.9,23.9,30.24,East,83,0.0,0.0,64,0.00,,,0.00,0,Wunderground v.1.15,2013-02-10 03:38:00,
2013-02-09 22:43:00,33.9,24.1,30.24,East,83,0.0,0.0,67,0.00,,,0.00,0,Wunderground v.1.15,2013-02-10 03:43:00,
2013-02-09 22:48:00,33.3,23.9,30.24,East,83,0.0,1.0,68,0.00,,,0.00,0,Wunderground v.1.15,2013-02-10 03:48:00,
2013-02-09 22:53:00,33.7,23.9,30.24,East,83,0.0,2.0,67,0.00,,,0.00,0,Wunderground v.1.15,2013-02-10 03:53:00,
2013-02-09 22:58:00,34.2,23.7,30.24,East,83,0.0,2.0,65,0.00,,,0.00,0,Wunderground v.1.15,2013-02-10 03:58:00,
2013-02-09 23:03:00,34.6,23.7,30.24,East,83,0.0,0.0,64,0.00,,,0.00,0,Wunderground v.1.15,2013-02-10 04:03:00,
2013-02-09 23:08:00,34.4,23.8,30.23,East,83,0.0,0.0,65,0.00,,,0.00,0,Wunderground v.1.15,2013-02-10 04:08:00,
2013-02-09 23:13:00,34.3,23.7,30.23,East,83,0.0,0.0,65,0.00,,,0.00,0,Wunderground v.1.15,2013-02-10 04:13:00,
2013-02-09 23:18:00,33.8,24.0,30.22,East,83,0.0,0.0,67,0.00,,,0.00,0,Wunderground v.1.15,2013-02-10 04:18:00,
2013-02-09 23:23:00,33.2,23.8,30.22,East,83,1.0,2.0,68,0.00,,,0.00,0,Wunderground v.1.15,2013-02-10 04:23:00,
2013-02-09 23:28:00,33.6,23.8,30.22,ENE,78,2.0,3.0,67,0.00,,,0.00,0,Wunderground v.1.15,2013-02-10 04:28:00,
2013-02-09 23:33:00,33.5,23.7,30.23,ENE,78,2.0,2.0,67,0.00,,,0.00,0,Wunderground v.1.15,2013-02-10 04:33:00,
2013-02-09 23:38:00,33.8,23.6,30.23,East,79,0.0,2.0,66,0.00,,,0.00,0,Wunderground v.1.15,2013-02-10 04:38:00,
2013-02-09 23:43:00,33.9,23.7,30.22,East,79,1.0,1.0,66,0.00,,,0.00,0,Wunderground v.1.15,2013-02-10 04:43:00,
2013-02-09 23:48:00,33.8,23.6,30.22,East,79,0.0,1.0,66,0.00,,,0.00,0,Wunderground v.1.15,2013-02-10 04:48:00,
2013-02-09 23:53:00,33.7,23.5,30.22,East,79,0.0,1.0,66,0.00,,,0.00,0,Wunderground v.1.15,2013-02-10 04:53:00,
2013-02-09 23:58:00,33.5,23.4,30.22,East,79,1.0,2.0,66,0.00,,,0.00,0,Wunderground v.1.15,2013-02-10 04:58:00,